Theta_e
327 326 327 329 327 325 326 327 324 325 329 328 321 320 323 322 322 325 326 326 332 339 340 342 343 346 349 348 348 348 349 350 352 352 352 350 350 348 346 344 344 345 347 348 349 350 352 352 350 347 347 347 348 352 354 353 347 345 346 346 347 344 341
327 328 328 328 328 329 327 325 325 329 331 329 326 322 323 325 324 325 326 325 330 335 338 343 344 345 348 347 347 346 347 348 351 352 353 351 351 348 346 344 344 344 347 347 349 350 351 351 350 349 347 347 349 350 354 355 351 348 347 346 349 348 344
326 329 328 325 328 331 330 328 330 330 327 328 329 326 324 326 325 325 325 324 329 334 337 342 344 344 346 346 347 346 346 347 349 353 354 353 353 351 347 345 344 344 345 346 348 349 350 351 351 351 348 348 350 351 354 356 354 352 351 350 352 353 349
326 327 325 322 325 330 331 330 331 330 327 327 329 328 326 327 327 326 326 326 330 336 341 344 346 347 347 346 347 348 348 348 348 351 353 352 352 352 349 347 345 344 345 346 347 348 349 351 351 351 350 349 351 352 354 356 355 354 354 353 353 354 354
323 323 325 324 325 328 328 327 328 328 329 328 329 329 327 326 326 327 328 328 332 340 344 346 346 346 347 347 347 349 348 347 346 347 350 351 351 349 349 348 346 344 344 345 347 348 349 351 351 351 351 351 352 352 354 355 355 354 354 353 352 353 354
319 321 327 327 328 329 328 328 327 327 330 333 333 332 329 325 324 326 326 328 334 344 347 346 345 345 347 348 348 350 349 346 344 345 348 351 351 349 349 347 346 344 343 344 346 348 349 350 351 351 351 351 352 352 353 353 354 353 353 352 352 351 353
321 324 327 327 328 330 329 329 329 328 330 332 332 332 329 325 325 326 325 326 335 345 346 345 347 348 350 349 347 350 350 346 345 344 347 350 350 349 349 347 345 346 344 344 346 348 348 349 350 350 350 351 351 351 352 352 353 353 351 351 351 351 352
324 325 327 327 327 329 327 328 332 330 328 330 332 332 331 328 326 326 325 327 335 345 347 347 348 349 351 349 346 348 350 348 347 345 346 350 351 349 348 346 345 347 345 344 346 348 349 349 349 350 350 349 350 351 350 351 352 352 351 351 351 351 351
321 321 323 324 326 328 329 330 333 332 331 331 331 331 333 331 328 328 327 328 334 342 346 347 348 348 347 346 345 346 349 350 349 347 347 351 353 350 348 346 346 349 347 344 346 347 348 348 348 349 349 349 350 350 350 351 351 351 351 350 351 352 351
319 319 320 321 324 326 328 329 331 332 331 330 330 331 333 332 331 331 331 333 337 342 344 345 346 347 347 348 345 344 349 351 350 350 349 350 353 351 349 348 348 349 348 346 346 347 348 349 348 348 349 348 349 350 350 351 351 351 351 351 352 352 352
320 320 322 324 325 324 324 326 328 330 330 331 332 332 333 334 332 330 334 339 339 339 344 346 345 346 349 350 348 347 350 351 350 350 350 350 351 351 350 350 348 348 347 348 348 348 347 348 348 350 349 349 351 351 352 352 351 351 351 351 352 352 352
321 323 325 325 325 322 322 325 326 327 329 331 333 331 331 334 332 329 334 340 337 336 341 343 343 345 347 348 351 351 352 351 350 350 351 351 352 353 353 351 348 348 348 349 349 349 348 348 349 350 349 350 351 352 352 353 353 353 353 353 353 354 353
323 325 325 324 324 323 325 326 326 327 328 328 329 330 331 333 331 329 332 337 337 337 339 341 344 347 344 345 350 352 351 352 351 351 351 351 353 354 354 351 348 349 351 351 350 349 348 348 349 350 350 350 352 353 353 353 354 355 355 354 355 356 356
321 324 323 324 322 322 324 327 326 326 326 326 328 329 330 332 332 332 333 336 337 338 340 343 346 346 343 342 345 348 350 351 352 351 352 351 352 354 354 352 350 349 350 351 350 349 347 348 350 351 350 349 351 354 354 353 353 355 355 354 354 355 355
320 322 322 322 322 321 321 323 325 326 325 326 328 328 330 330 330 333 335 333 336 342 345 346 346 345 345 341 340 344 349 352 352 351 351 351 352 353 354 351 349 348 348 348 348 350 350 351 353 354 354 352 352 354 355 353 353 355 355 355 355 356 355
318 321 321 321 322 322 321 320 323 326 325 325 327 329 330 329 329 332 332 330 335 344 346 345 345 345 345 343 340 341 346 349 351 352 352 352 352 353 352 349 348 348 349 348 348 349 349 350 353 354 354 356 355 354 354 355 356 354 354 357 357 358 357
318 321 321 322 322 320 319 321 326 327 327 326 326 328 330 331 332 331 330 332 339 345 346 345 344 344 344 345 344 342 343 345 347 349 351 351 351 353 352 350 349 348 348 348 348 349 347 348 350 350 350 353 356 356 357 358 358 354 353 356 356 356 359
318 321 323 322 320 317 320 327 329 328 327 327 327 328 330 333 335 333 332 334 340 344 345 344 344 343 343 344 343 342 342 342 341 343 348 350 350 350 351 351 349 348 349 349 348 349 349 349 350 347 347 351 353 355 357 358 358 357 357 358 358 356 356
318 321 322 318 317 320 325 329 329 328 328 327 328 328 328 330 332 333 334 334 337 343 346 346 345 343 341 341 342 342 343 343 343 344 346 348 348 347 348 349 348 347 348 349 349 350 350 352 353 351 350 352 352 352 354 356 358 359 358 358 359 358 354
320 320 318 318 320 324 327 327 326 327 327 327 327 327 327 329 331 333 334 336 342 347 347 345 345 342 341 341 341 342 343 344 344 345 346 346 345 346 346 347 347 347 346 347 349 351 352 353 355 354 354 354 353 352 353 356 358 358 356 356 357 358 355
320 318 317 320 321 322 325 327 327 327 327 328 327 326 328 332 336 337 338 339 343 346 345 344 342 341 341 341 341 342 343 342 342 343 344 344 344 344 345 345 346 346 346 347 349 352 353 354 354 355 354 354 354 354 354 355 356 356 356 355 356 357 357
321 319 318 319 319 319 324 327 328 328 328 329 328 326 328 334 338 338 339 340 341 344 343 340 339 339 342 343 343 343 342 341 341 342 342 343 343 343 344 344 344 344 344 346 348 351 353 353 353 354 354 354 354 354 354 356 356 355 354 355 355 356 357
321 319 318 319 318 321 326 329 329 327 328 330 328 324 325 334 338 337 337 339 341 343 341 337 337 340 342 343 344 343 342 341 342 341 342 342 342 343 344 344 344 344 344 343 346 349 349 350 352 352 352 353 354 354 354 354 354 354 354 354 355 356 355
319 318 318 318 319 323 329 329 328 328 328 330 327 322 325 333 336 336 337 339 341 343 341 338 338 340 341 341 342 342 342 342 341 341 342 341 341 342 342 342 343 344 343 343 345 347 347 348 349 350 351 352 352 352 353 352 352 353 353 352 353 353 353
318 318 317 317 320 327 330 328 328 329 329 327 324 323 330 336 335 334 335 338 341 342 342 341 341 340 341 341 342 342 341 342 341 341 341 340 340 340 340 341 342 341 342 343 345 347 347 347 348 348 349 350 350 350 350 350 350 350 349 349 350 349 350
320 320 318 317 322 329 331 329 330 329 327 326 326 329 334 336 334 334 337 338 340 341 341 342 342 341 341 341 341 341 341 341 340 340 340 340 339 339 339 340 340 340 341 342 343 344 346 346 347 348 347 348 348 347 347 347 346 345 345 345 345 346 347
321 320 318 318 322 329 330 328 330 331 330 330 332 332 335 334 331 334 338 338 338 338 340 341 341 339 339 339 340 340 340 340 339 339 339 338 338 338 338 338 338 339 339 340 341 342 344 345 346 345 345 345 344 344 344 344 343 344 344 344 343 344 344
322 319 320 323 326 330 331 329 330 332 334 335 333 330 331 332 331 334 338 336 335 337 340 341 341 339 339 338 339 339 338 338 338 338 338 337 337 337 337 336 337 337 337 338 340 340 342 343 343 343 343 343 342 341 341 341 342 342 343 343 343 343 343
325 323 325 329 330 330 330 329 329 331 333 333 332 330 330 330 332 337 338 336 337 338 339 340 340 339 338 338 338 337 337 338 338 336 336 336 336 336 336 335 335 335 335 337 339 340 340 340 339 340 340 340 340 341 340 341 341 342 342 342 343 343 342
326 325 326 328 328 328 328 328 329 331 333 331 329 331 331 330 333 339 339 336 337 338 338 338 339 337 336 336 336 336 336 337 336 335 335 335 335 334 334 333 333 334 334 334 335 335 335 337 338 338 338 339 339 339 339 340 340 341 341 342 341 341 340
324 325 326 328 329 329 329 329 329 330 332 333 333 334 332 331 335 340 340 338 339 339 338 338 336 335 334 334 334 335 336 335 334 334 333 333 333 332 331 330 330 332 332 332 331 330 330 331 332 332 333 334 336 337 338 338 338 338 339 338 337 335 333
325 326 327 329 330 331 331 331 330 330 333 335 338 337 335 334 337 340 340 340 340 339 339 338 335 333 333 333 333 333 333 332 332 331 330 330 330 330 329 328 327 328 328 326 325 325 325 324 324 323 322 324 326 328 329 330 330 328 328 328 327 324 322
325 326 328 328 329 331 334 334 334 333 334 335 335 336 335 335 338 339 339 340 340 339 339 337 335 333 333 333 333 333 331 330 329 330 329 329 329 328 328 327 327 327 327 326 324 324 324 324 323 322 321 319 318 317 318 320 320 317 317 319 319 318 318
325 327 330 330 329 331 333 335 334 334 333 332 332 333 336 337 338 338 338 338 339 339 337 335 334 333 333 333 333 332 330 328 329 329 329 329 328 328 327 327 328 328 328 328 327 326 326 326 326 326 326 324 323 322 322 323 322 320 320 321 321 322 322
327 328 330 330 329 331 333 334 334 334 333 332 334 337 338 338 338 337 336 337 339 338 336 335 333 332 332 332 332 331 329 328 328 328 328 327 327 328 328 327 327 328 327 327 327 327 327 328 328 328 328 327 326 327 326 325 324 323 322 322 321 321 320
329 328 329 329 329 332 334 334 334 335 334 334 337 339 338 337 336 336 336 337 338 337 335 334 333 332 331 331 330 330 328 327 327 327 327 325 324 325 326 327 327 327 328 328 328 329 329 329 329 330 330 329 328 328 328 327 326 324 322 322 322 321 319
329 329 330 331 331 332 333 333 334 335 333 332 334 336 335 335 335 334 335 337 338 336 333 332 332 331 330 329 330 329 328 327 328 327 324 321 321 323 325 326 326 327 328 328 328 328 328 329 329 329 329 329 329 330 330 329 329 328 327 326 326 326 325
Wind_Speed
6 3 4 4 5 4 3 4 6 4 7 9 8 7 9 10 7 2 1 2 1 2 2 3 8 11 8 8 2 9 12 14 16 17 19 22 24 24 24 26 28 28 27 26 26 26 25 24 26 26 25 26 27 26 26 25 25 25 24 23 22 22 22
4 5 2 7 4 2 3 3 5 6 6 7 6 5 6 7 6 3 3 5 1 2 2 2 4 4 6 1 3 6 9 12 15 15 17 21 23 25 25 24 26 29 28 27 25 26 27 25 25 26 26 27 27 26 27 26 26 26 25 24 23 22 22
4 7 2 6 3 3 3 4 3 3 3 3 3 3 5 5 6 5 5 6 0 2 1 1 2 2 3 3 2 3 6 9 13 14 16 19 18 22 26 23 25 30 29 29 27 26 28 27 24 26 26 26 26 25 25 26 26 25 24 23 23 22 22
1 3 1 3 3 4 3 5 3 4 4 3 1 2 3 4 6 5 6 5 0 3 1 2 1 2 1 2 1 2 4 6 10 12 15 22 22 22 25 23 24 30 29 29 29 27 29 28 25 26 26 25 26 25 24 25 25 25 24 23 23 23 22
3 2 1 2 1 1 3 5 3 4 4 4 4 3 4 4 5 4 5 5 1 2 1 2 2 3 2 2 1 2 4 5 9 11 13 22 28 29 29 23 21 29 30 28 29 28 28 28 26 26 27 25 25 25 24 25 25 25 24 23 23 23 22
4 1 4 2 1 3 0 2 3 4 4 4 5 3 3 4 4 3 5 4 2 2 3 3 4 5 4 5 5 1 2 6 12 14 12 16 27 33 33 26 20 26 30 28 29 29 28 28 28 28 27 26 26 26 25 25 25 25 24 24 24 24 22
8 9 5 1 5 3 3 5 4 5 2 1 3 3 3 4 4 4 6 5 1 2 3 1 3 4 4 7 10 3 3 4 12 15 11 13 21 29 32 29 21 22 29 29 29 31 29 28 29 28 28 27 26 26 26 25 25 25 24 24 25 24 23
9 13 9 2 7 1 5 3 4 5 4 3 1 2 4 6 6 5 6 4 1 3 2 1 3 4 5 9 12 11 2 5 11 18 15 12 16 22 29 30 22 18 26 30 29 31 31 29 29 29 28 28 27 27 27 26 26 25 24 24 24 24 23
5 8 7 2 3 2 3 2 2 2 5 6 3 1 3 4 6 8 6 4 1 2 2 3 5 7 5 7 8 10 7 5 10 16 17 14 15 19 26 32 27 21 23 30 30 31 31 30 30 29 29 29 28 28 27 26 26 25 25 25 25 25 25
4 5 4 3 3 3 3 4 4 2 3 3 2 0 2 0 5 8 6 4 4 3 3 2 6 7 2 3 6 3 6 4 6 9 12 12 14 19 24 30 30 24 20 25 29 32 32 31 31 30 29 30 29 29 28 27 26 26 25 25 25 25 26
6 6 6 8 9 7 5 6 7 8 6 3 6 2 1 3 3 4 1 1 6 6 2 2 3 2 2 2 5 5 5 3 4 6 9 11 14 16 18 24 29 26 20 21 25 31 33 31 31 31 30 30 29 29 29 28 28 27 26 26 25 25 25
12 11 10 12 13 9 5 7 10 11 7 4 8 5 4 5 3 4 2 2 4 7 3 3 2 3 4 4 2 5 4 4 4 5 7 9 11 13 14 20 26 24 20 20 22 27 31 30 30 31 30 30 29 29 29 28 28 27 27 26 25 25 24
13 12 10 10 11 7 2 5 10 11 10 8 8 8 6 6 5 6 3 0 3 7 4 2 2 3 5 11 10 3 5 5 5 5 7 9 10 12 14 18 24 24 20 19 21 24 28 28 29 30 31 31 30 29 29 28 27 27 27 27 26 25 25
13 13 11 11 12 7 5 8 11 10 10 11 10 10 8 8 9 8 5 4 5 5 3 4 2 3 4 11 18 7 3 4 5 5 7 9 10 12 13 16 23 25 22 20 20 22 25 27 28 30 33 34 31 30 31 31 29 28 27 27 27 26 26
10 11 11 13 14 11 10 13 12 9 8 10 10 10 9 9 10 8 5 6 4 2 7 6 2 1 7 3 15 13 4 2 4 5 7 8 10 11 12 17 22 25 25 25 25 22 22 22 24 26 29 33 34 32 31 31 30 29 27 27 27 27 27
8 10 12 14 12 9 10 11 7 5 8 9 7 7 8 8 8 6 7 7 2 4 7 5 1 2 4 5 4 12 10 4 3 5 6 8 9 10 12 17 21 24 27 28 29 25 19 17 20 20 21 26 32 32 31 29 28 28 27 27 28 27 27
7 10 12 11 8 6 6 5 6 8 9 7 6 7 6 4 5 6 6 3 2 6 6 3 2 2 1 2 2 5 8 8 8 5 3 5 5 6 9 12 16 23 27 28 28 24 18 16 18 19 19 21 24 26 27 26 25 25 27 29 29 28 26
8 12 12 10 8 5 3 1 3 5 9 8 8 9 5 2 4 5 5 4 1 5 5 2 3 1 3 5 6 7 6 8 9 8 5 4 4 4 4 4 8 15 20 24 27 24 17 13 15 18 20 21 18 17 19 21 23 26 26 25 25 25 26
7 9 9 9 7 2 2 2 2 2 6 7 8 10 9 8 7 6 7 6 3 4 5 3 1 3 6 9 9 6 4 5 6 5 5 5 4 3 4 4 4 8 13 19 23 22 17 12 12 16 19 19 17 16 16 18 21 24 22 19 18 19 21
6 7 7 7 6 2 3 4 4 4 4 5 7 8 8 7 7 8 7 1 6 8 6 6 7 7 7 6 5 4 4 4 4 2 2 3 4 3 3 3 3 5 9 12 17 20 20 18 16 16 18 18 18 18 17 17 18 18 16 15 14 13 13
6 7 7 7 9 7 4 3 0 2 1 4 5 6 4 6 9 7 5 4 6 8 10 12 10 7 5 3 1 1 2 4 5 3 1 3 4 4 3 2 3 4 7 9 12 17 22 22 20 18 18 18 17 18 18 18 18 16 14 14 14 13 12
5 7 7 6 8 7 2 3 5 5 2 4 6 5 3 7 12 9 6 5 5 7 11 11 8 6 4 1 2 2 1 3 4 3 2 2 3 4 3 1 2 5 7 11 11 13 18 20 19 18 18 18 18 19 20 19 17 16 16 16 16 16 15
7 7 7 6 7 4 2 5 5 4 2 4 6 5 2 4 9 9 8 7 7 7 7 7 5 4 1 2 1 3 1 3 2 2 1 2 3 4 4 2 0 3 7 10 11 9 10 13 15 15 15 15 16 17 18 17 16 16 16 16 15 14 14
7 8 7 6 6 2 4 5 3 3 6 5 5 5 2 4 7 8 7 7 8 7 7 8 4 2 3 3 1 2 1 1 0 1 1 2 2 3 5 4 4 4 6 10 11 9 8 10 11 12 12 12 12 12 13 13 12 11 11 12 12 12 11
8 8 7 6 4 1 4 4 4 5 5 2 5 3 1 3 4 4 4 5 8 7 7 7 5 5 4 2 3 5 3 2 3 2 3 4 2 3 5 4 3 5 6 9 12 12 10 10 10 10 10 12 12 11 10 9 7 6 7 7 8 9 10
7 7 7 7 4 1 3 3 7 7 2 3 2 0 2 2 4 4 3 4 7 5 5 5 4 3 3 2 5 7 6 6 7 6 6 6 6 5 6 5 4 5 7 9 11 13 12 12 11 10 10 11 11 10 9 8 7 5 4 4 6 8 9
7 7 7 6 3 2 3 1 3 4 2 2 3 1 2 2 7 5 7 11 6 1 3 4 3 3 4 3 4 6 7 8 9 8 7 7 7 7 8 8 6 7 10 13 15 17 16 14 13 11 11 13 15 15 14 14 13 12 12 12 12 12 11
3 5 3 2 2 2 4 2 1 2 2 1 3 5 3 3 6 5 13 15 6 2 6 7 5 6 8 7 7 8 7 7 9 9 8 7 7 7 8 9 8 8 12 16 18 18 18 17 17 16 16 19 20 20 20 20 19 18 18 18 17 17 17
4 6 3 2 3 3 3 3 2 3 2 3 4 5 6 6 6 6 12 14 8 5 9 11 10 11 14 13 11 9 8 9 11 12 10 9 9 9 8 10 10 10 13 17 20 21 21 21 21 21 21 21 22 24 22 21 21 22 21 20 19 19 19
6 8 7 3 3 3 3 2 3 3 3 6 6 6 7 6 5 6 8 13 10 7 10 13 14 15 17 15 12 11 14 16 14 13 13 11 10 10 11 12 13 14 17 20 22 24 25 24 24 24 23 23 23 23 22 20 20 21 22 22 21 21 22
6 4 2 2 3 3 2 3 4 3 2 4 5 5 7 6 3 3 5 9 10 7 10 15 17 16 15 13 13 16 19 19 17 15 14 12 10 9 11 13 15 18 21 23 23 23 24 24 25 24 24 24 24 23 21 21 21 21 21 23 23 23 23
7 5 3 3 4 3 1 1 4 6 4 3 3 4 5 4 1 3 4 7 10 9 10 14 17 18 15 16 19 20 19 19 19 17 16 15 14 12 12 13 15 20 23 24 25 25 24 25 26 25 26 25 24 23 22 22 23 24 22 21 22 22 22
7 8 6 5 6 3 2 3 3 5 4 2 3 4 4 2 1 4 5 7 11 11 10 13 16 18 18 18 19 20 20 21 22 20 18 19 18 15 13 12 14 18 20 21 22 22 22 23 24 24 25 25 24 25 25 23 24 24 22 19 19 20 20
6 4 2 3 3 1 1 1 1 2 3 3 3 3 3 1 2 6 7 8 11 13 13 14 17 19 19 18 18 20 22 23 22 21 19 20 19 18 17 16 14 15 16 17 19 21 21 22 23 22 22 22 21 22 22 20 20 20 19 18 18 17 17
4 3 3 4 2 1 2 2 1 1 3 3 2 1 1 2 5 7 8 9 12 14 14 15 18 20 20 18 20 23 24 23 22 21 20 20 22 21 19 20 19 17 17 18 19 20 21 21 20 20 20 19 19 19 18 17 16 17 17 18 18 17 17
4 8 5 0 1 2 5 5 4 4 3 3 1 2 1 3 6 7 8 10 12 13 14 15 18 21 21 19 21 25 26 24 23 22 20 22 24 22 20 21 22 20 18 17 17 18 19 20 20 20 19 19 19 18 17 16 16 16 17 18 18 18 18
4 6 5 2 4 6 7 7 5 5 3 2 1 0 2 4 5 7 8 9 11 14 16 17 18 21 22 21 22 25 27 25 24 24 24 25 25 23 19 19 21 20 18 17 17 18 19 19 19 19 18 17 17 16 16 16 17 17 17 18 17 16 16
Wind_Direction
218 258 353 331 305 310 328 321 283 303 353 320 289 286 297 295 281 269 299 244 157 121 193 354 31 67 49 342 262 174 182 185 191 202 210 208 203 202 196 188 187 186 187 190 188 185 186 187 187 187 188 186 184 189 193 194 195 194 194 195 196 199 198
160 120 339 286 283 341 308 295 316 342 340 307 301 304 306 301 282 291 301 271 189 132 228 336 5 89 118 182 258 200 193 191 194 202 213 215 208 205 203 193 186 184 185 190 189 185 187 188 186 186 188 187 187 192 193 193 195 195 195 196 196 199 200
167 141 226 264 161 122 286 305 329 328 292 287 321 298 291 295 281 289 287 268 166 85 294 21 350 5 112 168 230 211 204 204 207 206 211 221 217 207 208 204 190 184 185 190 191 188 187 189 188 186 188 187 187 190 192 192 195 194 194 195 194 198 201
3 124 239 282 143 132 324 325 286 247 250 260 255 239 263 280 276 291 295 278 107 92 34 40 328 319 347 223 208 186 206 208 217 221 215 220 226 215 209 210 194 184 186 191 192 190 187 187 188 185 186 186 186 188 190 192 195 194 193 194 195 197 199
304 235 174 322 329 103 353 342 299 273 281 268 246 219 227 257 270 285 286 281 72 88 12 24 327 319 338 300 278 188 232 225 221 237 228 217 225 224 216 216 202 187 188 191 191 191 188 186 186 186 186 187 187 189 191 192 195 195 194 195 197 198 198
271 271 74 43 68 107 169 261 236 259 285 290 279 250 222 247 260 270 277 277 81 61 332 4 7 350 354 326 313 181 200 243 228 232 243 226 222 224 223 224 212 193 191 192 190 191 190 186 187 188 188 188 189 190 191 192 194 196 195 196 200 200 199
301 313 317 140 110 102 259 259 268 269 260 18 303 297 298 287 283 289 292 292 208 187 247 38 36 354 358 352 342 352 140 214 224 214 234 245 222 220 226 224 216 200 196 194 191 191 191 189 188 189 189 190 192 192 193 193 194 196 195 196 202 203 200
300 295 284 135 101 66 276 293 334 310 309 331 299 325 332 307 302 309 298 295 212 171 218 164 75 32 25 34 11 346 9 161 203 197 199 227 219 216 222 218 219 220 204 197 194 192 193 192 190 190 190 192 193 193 194 194 195 197 195 195 201 203 201
283 269 254 156 96 347 313 321 348 318 316 313 263 182 12 323 312 322 306 298 17 105 203 191 109 77 39 56 45 337 320 152 189 199 195 208 210 211 215 210 220 237 214 200 198 194 194 195 193 192 192 193 194 193 194 195 195 197 196 196 199 202 201
297 275 279 328 330 321 291 264 260 240 278 300 233 147 40 287 306 326 321 318 332 300 230 190 98 99 118 115 110 276 277 159 177 214 213 221 217 214 213 209 221 239 221 205 203 197 196 196 194 194 194 193 195 195 194 194 194 196 196 195 198 204 206
281 281 293 290 266 255 260 260 258 252 243 171 136 140 190 189 261 296 234 260 305 292 252 83 45 70 220 197 145 196 229 146 160 216 220 230 228 220 212 209 222 232 219 211 210 199 198 200 197 196 196 194 195 196 196 196 194 194 196 196 197 202 206
257 249 245 251 252 262 298 293 282 283 277 188 162 198 219 175 213 263 194 89 323 310 335 60 7 327 313 301 207 174 175 154 171 209 211 215 224 225 217 210 215 217 212 220 221 204 199 201 200 199 197 194 195 196 197 197 195 194 193 194 198 201 204
280 274 270 275 277 278 274 274 281 288 283 252 227 245 238 188 216 268 276 325 285 289 311 43 42 32 354 312 296 203 159 173 177 194 214 217 219 225 225 214 208 208 213 225 227 215 207 204 202 204 202 197 195 196 197 197 195 195 194 193 196 199 203
302 299 298 294 287 274 224 232 250 263 274 269 255 255 248 224 233 251 259 265 273 292 19 59 24 95 93 314 306 297 161 167 179 191 211 223 226 225 226 217 211 214 222 228 229 222 217 213 207 205 205 202 198 197 199 199 197 197 199 199 198 200 205
292 287 281 273 267 261 248 237 231 235 259 264 256 255 259 252 247 242 248 264 273 41 73 76 328 125 112 8 314 305 291 165 185 205 205 216 225 224 226 223 220 219 222 230 235 226 219 218 211 204 202 199 200 203 204 204 203 200 200 201 200 201 207
274 268 266 266 266 273 278 270 270 276 263 253 247 249 254 266 273 266 263 271 269 100 98 107 236 279 99 103 288 290 295 293 246 233 219 222 225 225 231 230 226 220 217 224 232 230 232 233 220 216 213 199 197 205 208 206 205 204 202 203 202 201 205
284 274 277 284 289 294 291 303 346 333 303 296 285 258 246 266 292 285 280 296 85 116 123 142 228 256 61 119 214 298 317 310 299 296 272 255 251 250 253 242 229 224 220 220 220 221 236 240 221 224 233 214 198 200 204 202 202 203 204 203 202 201 205
285 290 299 301 292 287 284 48 44 314 294 305 306 292 290 252 230 258 276 272 165 130 135 179 242 255 26 10 2 3 344 309 305 318 327 325 326 320 309 277 236 224 217 213 210 211 222 226 214 216 223 219 209 205 209 207 202 202 201 199 200 201 202
272 286 292 283 273 243 142 133 128 248 279 294 292 288 286 266 247 259 261 242 193 119 125 138 89 58 46 30 19 9 334 304 304 311 320 333 334 326 336 325 263 219 203 198 198 200 200 189 186 195 197 198 201 205 212 215 207 203 199 195 200 204 203
266 263 261 272 279 216 187 232 224 206 249 281 280 278 283 295 317 323 310 291 107 103 98 77 62 65 73 62 33 355 322 308 302 306 323 313 292 272 299 324 284 223 201 189 181 176 171 166 168 173 174 179 186 190 202 215 212 203 196 191 198 207 208
270 270 263 271 282 278 266 284 314 131 281 311 315 303 315 22 36 25 3 28 77 82 67 60 53 46 51 64 41 338 324 290 274 272 265 253 251 241 238 281 283 234 196 180 175 165 161 164 166 163 163 173 180 182 191 206 210 202 193 189 193 202 207
267 270 265 264 279 285 292 78 81 77 5 331 341 324 330 43 51 55 49 48 77 78 68 68 62 43 27 315 189 167 271 277 256 248 232 192 201 216 214 210 296 254 204 182 180 165 155 158 161 163 169 175 180 185 190 197 203 201 199 199 197 201 210
272 274 269 259 267 280 62 85 88 75 25 1 349 318 282 39 42 44 41 53 78 85 89 96 81 63 64 259 160 129 312 306 259 240 237 160 173 189 187 155 112 255 227 209 201 179 158 155 157 168 180 182 184 189 192 197 202 202 205 210 205 202 211
249 258 266 271 270 260 96 102 104 35 35 25 323 285 275 13 20 31 31 48 78 97 121 132 136 175 210 261 247 147 196 308 49 39 89 134 158 170 169 164 162 188 202 196 191 184 172 163 163 173 189 194 195 195 194 197 203 205 208 213 213 215 224
235 231 242 259 268 18 79 91 73 41 39 3 297 285 56 9 360 12 6 50 100 128 156 154 164 198 203 213 174 162 159 130 108 77 78 95 109 161 169 167 188 202 184 168 168 166 159 157 158 165 179 190 195 198 198 197 196 205 215 215 212 217 221
251 241 245 247 243 18 26 69 79 57 356 283 316 242 171 333 329 318 341 70 105 143 175 156 136 155 156 139 150 151 133 108 102 89 80 82 85 115 137 130 136 157 150 145 144 141 143 150 151 153 166 172 168 165 165 160 151 148 157 157 155 168 182
252 245 252 260 253 46 31 69 89 54 347 328 11 310 200 332 322 333 67 87 89 89 131 117 89 115 144 137 120 123 115 103 94 81 74 81 87 97 108 111 111 118 123 125 125 125 133 139 137 143 153 147 138 132 121 113 109 104 100 104 113 123 132
276 250 252 272 265 13 31 14 2 44 75 37 339 318 303 312 316 21 85 98 98 91 126 133 115 124 146 140 113 108 109 104 99 91 79 78 90 98 103 108 111 113 116 121 124 124 126 128 129 135 139 130 120 114 108 105 105 101 96 98 103 104 105
297 290 299 134 191 264 315 335 351 27 20 309 300 302 304 315 344 46 98 119 121 120 150 153 134 131 144 143 132 126 119 109 108 107 97 90 96 103 103 104 111 116 114 119 125 124 122 125 126 126 128 124 115 109 109 110 108 104 101 100 100 100 99
276 282 279 249 220 250 280 330 9 31 352 317 314 315 314 324 358 38 102 129 135 156 172 157 138 141 150 145 135 136 134 127 118 110 104 100 101 109 109 106 111 118 115 115 116 115 116 120 120 118 120 121 117 112 112 112 110 109 112 111 108 106 105
251 250 261 294 326 341 351 332 326 333 335 326 332 331 322 324 358 38 87 124 140 167 179 161 144 144 157 156 139 135 137 134 125 118 119 119 114 110 107 103 110 120 120 114 107 103 104 108 109 108 108 109 110 112 113 112 109 107 110 112 112 110 109
254 264 249 217 235 274 296 300 321 340 2 10 2 347 328 329 28 94 103 129 143 156 178 173 152 138 147 158 146 135 134 132 124 120 120 117 110 100 93 93 103 111 110 105 100 98 98 98 99 98 98 100 103 107 109 111 110 106 104 106 108 109 109
257 268 264 227 216 244 17 52 10 354 1 353 332 329 321 314 194 160 146 141 150 158 169 169 151 134 135 144 139 130 131 133 129 123 120 120 118 114 107 99 97 98 99 97 99 101 100 99 98 96 95 96 98 100 100 100 100 100 98 96 96 97 97
261 256 183 148 186 236 12 21 302 350 1 337 307 310 323 315 204 192 175 151 150 157 158 151 143 135 134 138 137 131 132 134 132 130 130 132 131 129 125 117 104 99 103 106 107 106 103 100 98 96 96 97 98 98 97 95 96 101 103 102 100 99 98
302 342 109 141 186 201 150 148 146 79 9 331 314 2 40 165 190 198 187 162 154 158 160 153 145 140 140 144 142 135 134 135 133 131 132 134 132 130 128 124 117 111 109 109 108 107 104 101 100 98 96 96 95 94 96 99 105 112 114 112 109 106 104
347 353 355 239 249 114 119 111 89 72 32 347 29 86 118 219 222 213 186 161 156 160 161 158 151 145 144 146 142 137 136 135 132 130 131 132 129 127 126 125 122 118 116 114 112 110 109 109 109 106 101 99 98 97 98 100 101 102 103 103 100 98 98
54 26 12 85 117 114 113 104 84 68 45 13 27 160 217 217 222 211 180 158 159 162 156 149 147 147 148 147 142 138 137 136 135 134 134 129 124 122 124 126 123 121 122 121 116 112 112 111 109 105 102 105 113 117 117 116 114 109 104 99 95 93 93